星链-1613 (STARLINK-1613 )

导读

STARLINK-1613是美国太空探索技术公司(SpaceX)星链卫星互联网项目的组网卫星,于2020年8月18日发射入轨,属于星链初代低轨卫星。星链计划通过部署海量低轨卫星构建全球卫星互联网,该卫星承担为全球用户提供宽带互联网接入服务的任务,是星链低轨卫星星座组网建设的组成部分。

Basic Information
目录编号:
46165
目录名称:
STARLINK-1613
国际标识:
2020-057BA
轨道中心:
EARTH
卫星名称:
星链-1613
卫星全名:
星链-1613 (STARLINK-1613 )
卫星状态:
已陨落 最后检测时间 2024-05-20
发射日期:
2020-08-18 UTC
国别 :
美国 (US)
星等 :
--
Orbit Information
数据来源 国际轨道数据
星历时间: 2024-05-20T16:46:55+0800
轨道信息已过期755天
半长轴: 6564.331km
偏心率: 0.0008873
轨道倾角: 53.084°
近地点辐角 315.274°
升交点赤经 246.860°
平近点角 222.335°
近地点: 180.371km
远地点: 192.021km
周期: 88.216分钟
每日圈数: 16.323644
Detailed Information
固有亮度:
5
最大亮度:
2.5
卫星平台:
Starlink V1.0
覆盖范围:
全球
运营商:
太空探索技术公司
运营商所在国:
美国
制造商(研发单位):
太空探索技术公司
制造商所在国:
美国
使用方式:
暂无
Satellite Introduction
星链(Starlink)计划是由太空探索技术公司(SpaceX)提出的一个巨型低轨卫星互联网星座项目,计划在2019年至2024年间在太空搭建由约1.2万颗卫星组成的“星链”网络,其中1584颗将部署在地球上空550千米处的近地轨道,并从2020年开始工作。该卫星已陨落。